Jackson, MN

12:38 AM CST on January 24, 2018 (GMT -0600)
Jackson Municipal

Weather History for KMJQ - January, 2013

Change the Weather History Date:

Saturday, January 19, 2013

  Actual Average Record
Temperature  
Mean Temperature 24 °F -  
Max Temperature 42 °F 22 °F 50 °F (2018)
Min Temperature 6 °F 6 °F -11 °F (2008)
Degree Days  
Heating Degree Days 41    
Moisture  
Dew Point 22 °F    
Average Humidity 74    
Maximum Humidity 87    
Minimum Humidity 62    
Precipitation  
Precipitation 0.00 in - - ()
Sea Level Pressure  
Sea Level Pressure 29.92 in    
Wind  
Wind Speed 15 mph (WNW)    
Max Wind Speed 38 mph    
Max Gust Speed 48 mph    
Visibility 10 miles    
Events Snow    
Averages and records for this station are not official NWS values.
T = Trace of Precipitation, MM = Missing Value Source: NWS Daily Summary

Daily Weather History Graph

Daily Weather History Graph

Search for Another Location

Airport or City:

Trip Planner

Search our weather history database for the weather conditions in past years. The results will help you decide how hot, cold, wet, or windy it might be!

Date:

Astronomy

Jan. 19, 2013 Rise Set
Actual Time 7:47 AM CST 5:14 PM CST
Civil Twilight 7:16 AM CST 5:45 PM CST
Nautical Twilight 6:41 AM CST 6:20 PM CST
Astronomical Twilight 6:06 AM CST 6:55 PM CST
Moon 11:43 AM CST (1/19) 1:20 AM CST (1/19)
Length of Visible Light 10h 29m
Length of Day
9h 26m
First Quarter, 57% of the Moon is Illuminated
Jan 19
First Quarter
Jan 26
Full
Feb 3
Last Quarter
Feb 10
New
Feb 17
First Quarter

Hourly Weather History & Observations

Time (CST) Temp. Windchill Dew Point Humidity Pressure Visibility Wind Dir Wind Speed Gust Speed Precip Events Conditions
12:12 AM 35.6 °F 29.2 °F 30.2 °F 81% 29.78 in 10.0 mi SSW 8.1 mph - N/A   Overcast
12:33 AM 35.6 °F 29.2 °F 30.2 °F 81% 29.78 in 10.0 mi SSW 8.1 mph - N/A   Overcast
12:53 AM 35.6 °F 29.2 °F 30.2 °F 81% 29.77 in 10.0 mi SW 8.1 mph - N/A   Mostly Cloudy
1:12 AM 35.6 °F 29.9 °F 30.2 °F 81% 29.76 in 10.0 mi SW 6.9 mph - N/A   Mostly Cloudy
1:33 AM 37.4 °F 30.8 °F 30.2 °F 75% 29.76 in 10.0 mi SW 9.2 mph - N/A   Mostly Cloudy
1:53 AM 35.6 °F 28.6 °F 30.2 °F 81% 29.76 in 10.0 mi SW 9.2 mph - N/A   Overcast
2:13 AM 35.6 °F 28.0 °F 30.2 °F 81% 29.76 in 10.0 mi SSW 10.4 mph - N/A   Mostly Cloudy
2:33 AM 35.6 °F 28.6 °F 30.2 °F 81% 29.76 in 10.0 mi SW 9.2 mph - N/A   Mostly Cloudy
2:53 AM 35.6 °F 30.7 °F 30.2 °F 81% 29.75 in 10.0 mi SW 5.8 mph - N/A   Mostly Cloudy
3:13 AM 35.6 °F 29.9 °F 30.2 °F 81% 29.75 in 10.0 mi SSW 6.9 mph - N/A   Overcast
3:33 AM 35.6 °F 31.7 °F 30.2 °F 81% 29.75 in 10.0 mi SW 4.6 mph - N/A   Overcast
3:53 AM 33.8 °F 29.6 °F 30.2 °F 87% 29.75 in 10.0 mi SW 4.6 mph - N/A   Overcast
4:13 AM 35.6 °F 30.7 °F 30.2 °F 81% 29.74 in 10.0 mi WSW 5.8 mph - N/A   Overcast
4:33 AM 35.6 °F 29.2 °F 30.2 °F 81% 29.74 in 10.0 mi WSW 8.1 mph - N/A   Overcast
4:53 AM 35.6 °F 28.6 °F 30.2 °F 81% 29.73 in 10.0 mi WSW 9.2 mph - N/A   Scattered Clouds
5:13 AM 35.6 °F 28.0 °F 30.2 °F 81% 29.73 in 10.0 mi WSW 10.4 mph - N/A   Clear
5:33 AM 35.6 °F 27.5 °F 28.4 °F 75% 29.74 in 10.0 mi West 11.5 mph - N/A   Clear
5:53 AM 37.4 °F 29.8 °F 28.4 °F 70% 29.74 in 10.0 mi West 11.5 mph - N/A   Scattered Clouds
6:13 AM 35.6 °F 26.6 °F 28.4 °F 75% 29.75 in 10.0 mi West 13.8 mph - N/A   Scattered Clouds
6:33 AM 35.6 °F 26.6 °F 28.4 °F 75% 29.75 in 10.0 mi West 13.8 mph - N/A   Clear
6:53 AM 35.6 °F 27.1 °F 28.4 °F 75% 29.75 in 10.0 mi West 12.7 mph 18.4 mph N/A   Clear
7:13 AM 35.6 °F 27.1 °F 28.4 °F 75% 29.74 in 10.0 mi West 12.7 mph - N/A   Clear
7:33 AM 35.6 °F 26.2 °F 28.4 °F 75% 29.75 in 10.0 mi West 15.0 mph - N/A   Clear
7:53 AM 35.6 °F 26.2 °F 28.4 °F 75% 29.76 in 10.0 mi West 15.0 mph - N/A   Clear
8:13 AM 35.6 °F 26.2 °F 28.4 °F 75% 29.76 in 10.0 mi West 15.0 mph - N/A   Clear
8:33 AM 35.6 °F 26.6 °F 28.4 °F 75% 29.77 in 10.0 mi West 13.8 mph 20.7 mph N/A   Clear
8:53 AM 35.6 °F 26.6 °F 28.4 °F 75% 29.79 in 10.0 mi West 13.8 mph 18.4 mph N/A   Scattered Clouds
9:13 AM 35.6 °F 26.2 °F 30.2 °F 81% 29.81 in 10.0 mi West 15.0 mph - N/A   Mostly Cloudy
9:33 AM 37.4 °F 28.5 °F 30.2 °F 75% 29.82 in 10.0 mi WNW 15.0 mph 20.7 mph N/A   Clear
9:53 AM 37.4 °F 28.5 °F 30.2 °F 75% 29.83 in 10.0 mi West 15.0 mph 21.9 mph N/A   Clear
10:13 AM 37.4 °F 28.9 °F 30.2 °F 75% 29.83 in 10.0 mi WNW 13.8 mph - N/A   Clear
10:32 AM 37.4 °F 28.2 °F 30.2 °F 75% 29.84 in 10.0 mi WNW 16.1 mph 20.7 mph N/A   Clear
10:53 AM 41.0 °F 32.2 °F 30.2 °F 65% 29.84 in 10.0 mi WNW 18.4 mph - N/A   Scattered Clouds
11:13 AM 39.2 °F 29.8 °F 30.2 °F 70% 29.84 in 10.0 mi WNW 18.4 mph 28.8 mph N/A   Mostly Cloudy
11:32 AM 41.0 °F 32.2 °F 30.2 °F 65% 29.84 in 10.0 mi WNW 18.4 mph 21.9 mph N/A   Scattered Clouds
11:53 AM 42.8 °F 35.1 °F 32.0 °F 66% 29.83 in 10.0 mi WNW 16.1 mph 23.0 mph N/A   Clear
12:13 PM 42.8 °F 34.5 °F 32.0 °F 66% 29.84 in 10.0 mi WNW 18.4 mph 27.6 mph N/A   Clear
12:33 PM 42.8 °F 35.4 °F 32.0 °F 66% 29.85 in 10.0 mi WNW 15.0 mph 29.9 mph N/A   Clear
12:53 PM 42.8 °F 32.7 °F 32.0 °F 66% 29.86 in 10.0 mi WNW 27.6 mph 33.4 mph N/A   Clear
1:53 PM 41.0 °F 30.2 °F 30.2 °F 65% 29.88 in 10.0 mi WNW 27.6 mph 35.7 mph N/A   Scattered Clouds
2:13 PM 39.2 °F 28.0 °F 30.2 °F 70% 29.89 in 10.0 mi WNW 26.5 mph 35.7 mph N/A   Mostly Cloudy
2:33 PM 39.2 °F 27.4 °F 30.2 °F 70% 29.90 in 10.0 mi WNW 29.9 mph 38.0 mph N/A   Overcast
2:53 PM 37.4 °F 26.4 °F 30.2 °F 75% - 10.0 mi WNW 23.0 mph 34.5 mph N/A   Overcast
3:13 PM 37.4 °F 25.0 °F 30.2 °F 75% 29.92 in 10.0 mi NW 29.9 mph 39.1 mph N/A   Overcast
3:33 PM 32.0 °F 18.6 °F 28.4 °F 87% 29.95 in 10.0 mi NW 25.3 mph 34.5 mph N/A   Overcast
3:53 PM 30.2 °F 16.5 °F 26.6 °F 86% 29.97 in 10.0 mi NW 24.2 mph 32.2 mph N/A   Overcast
4:13 PM 30.2 °F 16.8 °F 26.6 °F 86% 29.98 in 10.0 mi NW 23.0 mph 31.1 mph N/A   Overcast
4:33 PM 30.2 °F 15.4 °F 24.8 °F 80% 29.99 in 10.0 mi NW 28.8 mph 38.0 mph N/A   Overcast
4:53 PM 26.6 °F 8.7 °F 21.2 °F 80% 30.01 in 10.0 mi NNW 38.0 mph 44.9 mph N/A   Overcast
5:13 PM 26.6 °F 10.6 °F 19.4 °F 74% 30.04 in 10.0 mi NW 28.8 mph 38.0 mph N/A   Scattered Clouds
5:32 PM 24.8 °F 6.8 °F 17.6 °F 74% 30.06 in 10.0 mi NW 34.5 mph 40.3 mph N/A   Mostly Cloudy
5:53 PM 23.0 °F 5.1 °F 17.6 °F 80% 30.08 in 7.0 mi NW 31.1 mph 40.3 mph N/A Snow Light Snow
6:13 PM 21.2 °F 3.0 °F 14.0 °F 74% 30.10 in 7.0 mi NW 29.9 mph 40.3 mph N/A Snow Light Snow
6:33 PM 19.4 °F -0.6 °F 12.2 °F 74% 30.12 in 10.0 mi NW 34.5 mph 46.0 mph N/A Snow Light Snow
6:53 PM 17.6 °F -3.1 °F 8.6 °F 68% 30.13 in 10.0 mi NW 34.5 mph 44.9 mph N/A   Mostly Cloudy
7:13 PM 15.8 °F -4.4 °F 5.0 °F 62% 30.15 in 10.0 mi NW 29.9 mph 36.8 mph N/A   Scattered Clouds
7:33 PM 14.0 °F -6.8 °F 5.0 °F 67% 30.17 in 10.0 mi NW 29.9 mph 48.3 mph N/A   Clear
7:53 PM 14.0 °F -4.7 °F 5.0 °F 67% 30.19 in 10.0 mi NW 23.0 mph 38.0 mph N/A   Scattered Clouds
8:13 PM 12.2 °F -7.5 °F 3.2 °F 67% 30.19 in 10.0 mi NW 24.2 mph 38.0 mph N/A   Scattered Clouds
8:33 PM 12.2 °F -8.2 °F 3.2 °F 67% 30.20 in 10.0 mi NW 26.5 mph 39.1 mph N/A   Scattered Clouds
8:53 PM 10.4 °F -9.5 °F 1.4 °F 67% 30.21 in 10.0 mi NW 23.0 mph 36.8 mph N/A   Clear
9:13 PM 10.4 °F -10.7 °F 1.4 °F 67% 30.22 in 10.0 mi NW 26.5 mph 38.0 mph N/A   Clear
9:33 PM 10.4 °F -8.6 °F 1.4 °F 67% 30.23 in 10.0 mi NW 20.7 mph 31.1 mph N/A   Clear
9:53 PM 8.6 °F -11.9 °F 1.4 °F 73% 30.23 in 10.0 mi NNW 23.0 mph 35.7 mph N/A   Clear
10:13 PM 8.6 °F -13.1 °F -0.4 °F 67% 30.23 in 10.0 mi NW 26.5 mph 32.2 mph N/A   Clear
10:33 PM 8.6 °F -11.0 °F -0.4 °F 67% 30.23 in 10.0 mi NW 20.7 mph 28.8 mph N/A   Clear
10:53 PM 8.6 °F -11.9 °F -0.4 °F 67% 30.24 in 10.0 mi NW 23.0 mph 32.2 mph N/A   Clear
11:13 PM 8.6 °F -11.4 °F -0.4 °F 67% 30.25 in 10.0 mi NW 21.9 mph 29.9 mph N/A   Clear
11:33 PM 6.8 °F -13.4 °F -0.4 °F 72% 30.26 in 10.0 mi NW 20.7 mph 29.9 mph N/A   Clear
11:53 PM 6.8 °F -12.4 °F -0.4 °F 72% 30.27 in 10.0 mi NW 18.4 mph - N/A   Clear